Regional Weather Roundup
Issued by NWS

Home | Current Version | Previous Version | Text Only | Print | Product List | Glossary Off
Versions: 1 2 3 4 5 6 7 8 9 10 11 12 13 14 15 16 17 18 19 20 21 22 23 24 25 26 27 28 29 30 31 32 33 34 35 36 37 38 39 40 41 42 43 44 45 46 47 48 49 50

377
ASUS43 KFSD 031702
RWRSD

WEATHER ROUNDUP FOR SOUTH DAKOTA
NATIONAL WEATHER SERVICE SIOUX FALLS SD
1200 PM CDT TUE MAY 03 2016

NOTE: "FAIR" INDICATES FEW OR NO CLOUDS BELOW 12,000 FEET WITH NO
SIGNIFICANT WEATHER AND/OR OBSTRUCTIONS TO VISIBILITY.


SDZ001>005-009-010-012>017-031800-
NORTHWEST AND NORTH CENTRAL SOUTH DAKOTA

CITY           SKY/WX    TMP DP  RH WIND       PRES   REMARKS
BUFFALO          N/A     71  32  23 N16G23    30.04R
FAITH            N/A     67  36  31 NW13      30.06S
MOBRIDGE       SUNNY     70  48  45 NW12      29.97F
$$

SDZ012>016-024>037-041>051-057-063-072>074-031800-
SOUTHWEST AND SOUTH CENTRAL SOUTH DAKOTA

CITY           SKY/WX    TMP DP  RH WIND       PRES   REMARKS
RAPID CTY ARPT SUNNY     67  39  35 N14       30.11S
PIERRE         SUNNY     65  45  48 NW15      30.02F
CUSTER         SUNNY     61  27  27 N10G24    30.18R
ELLSWORTH AFB  SUNNY     65  37  34 N13       30.11S
PHILIP         SUNNY     66  39  37 NW9       30.07S
PINE RIDGE     SUNNY     60  38  43 VRB6      30.13S
WINNER         FAIR      63  43  48 W13       30.06F
$$

SDZ004>011-016>023-039-040-031800-
NORTHEAST SOUTH DAKOTA

CITY           SKY/WX    TMP DP  RH WIND       PRES   REMARKS
ABERDEEN       SUNNY     69  44  40 NW15      29.94F
WATERTOWN      SUNNY     64  43  46 NW17G26   29.94F
BROOKINGS      SUNNY     62  45  53 W20G25    29.95F
SISSETON         N/A     68  40  35 NW17G24   29.87F
$$

SDZ017-020-022-023-036>040-048>070-031800-
SOUTHEAST SOUTH DAKOTA

CITY           SKY/WX    TMP DP  RH WIND       PRES   REMARKS
SIOUX FALLS    MOSUNNY   63  44  50 NW16G24   29.98F
HURON          SUNNY     66  44  45 NW20G25   29.98F
MITCHELL       SUNNY     64  47  53 W17       30.01F
YANKTON        MOSUNNY   63  45  51 W10       30.02F
$$

ABBREVIATIONS USED IN REMARKS
   TC - TEMPERATURE IN CELSIUS
  WCI - WIND CHILL INDEX
   HX - HEAT INDEX
  VSB - VISIBILITY





USA.gov is the U.S. government's official web portal to all federal, state and local government web resources and services.